Home > Weather > Białystok > Past weeks

Flag for Poland Past Weather in Białystok, Poland — Yesterday and Last 2 Weeks

Now
72 °F

Partly sunny.


Feels Like: 76 °F
Forecast: 52 / 76 °F
Wind: 2 mph from Northwest

Location: Bialystok

Current Time: Aug 24, 2016 at 6:23:44 PM

Latest Report: Aug 24, 2016 at 5:00 PM


Visibility: 25 mi

Pressure: 30.27 "Hg

Humidity: 60%

Dew Point: 57 °F

Location of BiałystokLocation

Past Weather in Białystok — Graph

°F

Białystok Temperature Yesterday

Maximum temperature yesterday: 72 °F (at 3:00 PM)
Minimum temperature yesterday: 60 °F (at 6:00 AM)
Average temperature yesterday: 65 °F

High & Low Weather Summary for the Past Weeks

 TemperatureHumidityPressure
High80 °F (Aug 20, 2:00 PM)98% (Aug 12, 6:00 AM)30.29 "Hg (Aug 12, 6:00 AM)
Low39 °F (Aug 12, 5:00 AM)42% (Aug 12, 4:00 PM)29.86 "Hg (Aug 18, 4:00 AM)
Average60 °F83%30.06 "Hg
* Reported Aug 9 5:00 PM — Aug 24 5:00 PM, Białystok, Weather by CustomWeather, © 2016

Note: Actual official high and low records may vary slightly from our data, if they occured in-between our weather recording intervals... More about our weather records

Advertising

Białystok Weather History for the Previous 24 Hours

Scroll right to see more
 ConditionsComfort  
Time TempWeatherWind HumidityBarometerVisibility
5:00 PM
Wed, Aug 24
72 °FPartly sunny.2 mph60%30.27 "Hg25 mi
4:00 PM71 °FPartly sunny.2 mph62%30.27 "Hg19 mi
3:00 PM69 °FPartly sunny.2 mph64%30.28 "Hg31 mi
2:00 PM70 °FPartly sunny.2 mph62%30.28 "Hg22 mi
1:00 PM69 °FPartly sunny.2 mph62%30.28 "Hg22 mi
12:00 PM66 °FOvercast.2 mph67%30.29 "Hg31 mi
11:00 AM66 °FOvercast.3 mph74%30.28 "Hg25 mi
10:00 AM65 °FOvercast.1 mph81%30.27 "Hg19 mi
9:00 AM64 °FOvercast.2 mph87%30.28 "Hg12 mi
8:00 AM62 °FLow clouds.1 mph94%30.27 "Hg7 mi
7:00 AM61 °FFog.1 mph96%30.27 "Hg5 mi
6:00 AM61 °FFog.2 mph96%30.25 "Hg5 mi
5:00 AM61 °FFog.2 mph95%30.25 "Hg6 mi
4:00 AM61 °FLow clouds.1 mph97%30.25 "Hg4 mi
3:00 AM61 °FSprinkles. Low clouds.2 mph96%30.25 "Hg2 mi
2:00 AM61 °FFog.2 mph95%30.24 "Hg5 mi
1:00 AM61 °FPassing clouds.2 mph93%30.24 "Hg6 mi
12:00 AM62 °FOvercast.2 mph90%30.24 "Hg9 mi
11:00 PM
Tue, Aug 23
63 °FOvercast.3 mph85%30.24 "Hg17 mi
10:00 PM64 °FPassing clouds.2 mph79%30.23 "Hg25 mi
9:00 PM66 °FOvercast.2 mph75%30.23 "Hg28 mi
8:00 PM67 °FOvercast.3 mph71%30.23 "Hg28 mi
7:00 PM68 °FSprinkles. Overcast.2 mph74%30.22 "Hg22 mi
6:00 PM69 °FOvercast.1 mph69%30.21 "Hg22 mi
Weather by CustomWeather, © 2016

See weather overviewHow to use our weather pages